Lapse_Rate
4.1 3.9 3.9 3.8 3.3 2.6 2.3 2.5 2.0 1.9 1.6 1.8 1.7 1.2 1.5 1.4 1.7 2.9 4.2 4.4 4.8 4.6 3.7 2.9 2.7 2.8 2.2 2.0 1.8 1.6 1.7 1.6 1.1 0.8 0.9 1.2 1.7 3.4 3.4 3.4 3.5 3.8 4.4
3.0 3.2 2.8 3.7 3.6 2.8 2.5 2.4 2.9 2.3 2.4 1.8 1.8 1.6 1.7 1.9 2.4 3.6 4.5 5.0 4.9 4.6 4.0 3.3 2.4 2.7 2.2 2.4 2.2 2.3 1.8 1.5 1.9 2.6 1.4 2.3 2.8 2.9 3.7 2.8 3.8 3.7 4.4
2.0 2.3 2.5 2.1 1.7 2.1 2.2 2.8 3.2 2.9 3.0 2.9 2.1 1.9 1.5 1.6 2.2 2.8 2.7 3.7 4.6 5.0 4.9 4.4 3.6 2.8 2.3 2.2 2.4 2.5 3.0 2.3 1.8 2.9 3.9 3.6 3.6 2.3 2.5 3.2 3.4 4.2 3.2
2.1 1.5 1.6 1.4 1.0 1.5 1.8 3.2 3.4 3.7 3.9 2.7 2.5 2.2 1.7 2.1 2.2 2.8 3.0 3.7 5.2 5.2 5.3 4.9 4.2 3.4 2.8 2.6 2.4 3.9 2.8 2.4 2.2 1.9 3.9 3.5 4.2 4.7 3.6 2.7 3.0 2.9 3.6
1.7 1.4 1.5 2.0 1.9 1.3 1.4 2.4 3.5 4.0 3.7 2.9 2.3 1.5 1.9 1.5 1.9 2.6 3.4 3.4 4.0 4.8 5.3 5.3 4.4 3.4 2.8 2.3 2.3 2.7 2.7 2.4 2.3 2.3 2.8 3.1 3.2 3.4 3.9 4.7 2.6 2.9 3.2
1.8 2.4 2.8 2.2 0.9 1.1 1.9 2.5 3.3 3.5 3.3 2.8 2.4 2.0 2.1 2.4 2.4 2.5 2.5 2.5 3.3 3.8 4.6 4.7 3.9 3.4 2.7 2.3 2.4 2.5 2.5 2.3 2.1 2.3 2.4 3.1 4.0 3.9 4.7 3.9 4.2 3.7 3.4
1.2 1.1 1.3 1.2 1.9 2.5 2.6 3.0 2.9 3.3 2.9 2.5 2.5 2.5 2.4 2.5 2.9 2.6 2.4 3.0 3.2 3.0 3.1 3.4 2.9 2.4 2.7 2.7 2.6 2.1 2.0 2.1 2.2 2.5 2.6 3.0 3.4 4.1 4.6 4.9 5.7 4.7 4.2
1.6 2.0 2.6 2.2 2.4 2.8 2.6 3.1 2.6 2.6 2.6 2.1 2.2 2.0 2.3 1.9 2.2 2.8 2.4 2.2 2.3 2.3 2.4 2.2 2.2 2.3 2.6 2.6 2.4 1.8 1.9 2.4 2.1 2.4 2.6 3.0 3.4 3.9 4.4 5.4 5.1 6.2 6.1
2.6 3.0 3.2 2.6 2.1 2.0 2.2 2.3 2.7 2.5 2.3 2.4 1.6 1.4 1.6 2.0 2.0 1.8 1.7 1.4 1.8 3.0 1.9 2.0 1.7 2.1 2.3 2.4 1.9 1.6 1.9 1.9 2.3 2.5 2.7 2.9 3.4 3.5 3.9 4.3 4.8 5.7 6.9
3.2 3.1 2.9 2.7 2.5 2.7 2.4 2.1 2.1 1.6 1.9 1.6 0.8 1.0 1.3 1.7 1.6 1.4 1.6 1.9 1.8 2.0 1.6 1.8 1.6 1.7 1.8 1.9 1.6 1.3 1.8 2.0 1.8 3.2 2.8 3.0 3.2 3.3 3.4 3.8 4.2 4.5 5.9
2.7 2.5 2.6 2.7 2.5 2.1 1.8 2.1 2.0 1.8 1.7 1.5 1.3 1.6 2.4 2.7 1.8 1.7 1.8 2.1 1.8 1.9 2.2 2.2 2.1 2.1 1.9 1.8 1.6 1.6 2.4 2.1 2.1 2.6 3.0 2.8 3.3 3.1 3.1 3.5 4.0 4.3 4.4
2.2 1.7 1.7 1.9 2.0 2.1 2.0 1.7 1.6 1.5 1.6 1.8 1.6 2.1 2.5 2.2 1.6 1.9 2.0 1.9 2.1 2.1 2.0 2.1 2.1 2.0 2.1 2.1 2.2 2.1 2.2 2.5 2.6 2.8 3.0 3.0 4.8 3.4 3.0 3.3 4.0 4.5 4.4
2.4 2.0 1.6 1.5 1.6 1.7 1.9 1.9 1.8 1.9 2.1 2.4 2.3 2.3 2.2 1.8 1.6 1.9 2.1 2.4 2.2 2.1 2.0 2.0 2.0 2.1 2.3 2.5 2.6 2.9 2.9 2.9 2.8 2.8 2.6 3.2 3.6 3.9 4.0 3.7 4.1 4.2 6.0
3.2 2.0 1.1 0.8 1.0 1.4 1.7 1.8 1.8 1.7 2.2 2.7 2.5 2.4 2.2 2.2 2.2 2.4 2.6 2.7 2.5 2.4 2.1 2.0 2.0 2.0 2.2 2.8 3.0 3.4 3.1 2.8 3.3 3.1 3.1 3.4 3.7 3.9 4.3 5.0 4.7 6.2 5.4
4.3 3.3 2.0 1.0 0.8 1.0 1.6 2.0 2.2 2.2 2.6 3.2 3.2 3.2 2.8 2.7 2.5 3.0 3.0 2.9 2.7 2.7 2.3 2.5 2.7 2.4 3.4 4.4 3.8 3.6 3.3 2.9 2.8 2.7 3.2 3.9 4.3 5.3 6.1 7.8 8.0 7.6 7.3
4.1 3.8 4.0 2.3 1.8 1.4 1.4 2.1 2.2 2.2 2.7 3.1 3.5 3.4 3.4 3.2 3.2 3.2 3.1 3.0 3.0 3.1 3.2 2.8 2.4 2.9 4.2 5.4 5.9 6.1 4.2 3.8 3.4 3.5 3.8 4.0 4.4 4.5 6.7 7.6 9.5 9.2 8.2
3.5 2.9 2.6 2.4 2.0 1.7 1.6 1.5 1.8 2.1 2.7 3.3 3.4 3.5 3.5 3.6 3.5 3.4 3.6 3.8 3.8 3.7 2.5 2.2 3.2 3.4 3.1 5.2 6.0 6.3 5.0 3.9 3.3 3.4 3.7 4.2 5.4 6.1 6.9 8.3 8.9 8.1 8.2
3.4 2.5 2.0 1.6 1.9 2.0 1.6 1.4 1.7 2.0 2.7 3.4 3.9 4.0 3.8 3.8 3.9 4.1 4.2 4.1 4.2 3.0 2.6 3.0 2.7 2.4 3.2 5.3 5.8 6.2 4.6 3.5 2.9 3.5 3.6 4.0 5.0 6.0 7.7 7.8 7.4 7.1 7.3
3.6 2.9 2.4 2.1 2.4 1.8 0.8 1.1 1.6 2.1 3.0 3.7 3.9 4.0 4.3 4.7 4.7 4.3 3.8 4.2 3.0 2.8 2.5 2.6 2.4 2.4 2.8 4.7 5.5 6.0 4.1 3.0 2.7 3.4 3.6 4.5 5.9 8.1 9.0 8.0 7.1 6.9 6.7
3.7 3.2 2.9 2.5 1.8 1.0 1.3 1.8 2.2 2.7 3.5 3.8 4.1 4.7 4.9 4.4 4.0 3.7 3.7 3.5 2.8 2.4 2.3 2.8 2.3 3.2 3.5 4.5 5.7 6.1 5.1 3.8 4.1 3.6 4.0 6.6 8.7 9.0 9.2 8.4 7.8 7.0 6.9
4.5 3.6 3.0 3.3 2.7 2.2 2.6 2.8 2.8 3.5 4.1 4.4 4.8 4.7 4.0 3.5 3.0 3.5 3.0 2.5 2.1 2.3 1.9 2.0 2.2 2.1 3.0 3.0 5.7 6.6 6.0 4.7 5.5 5.2 5.6 6.7 8.6 8.8 9.1 9.0 8.0 7.5 8.2
5.2 4.8 3.3 3.1 3.0 3.0 3.3 3.2 3.6 4.0 4.1 4.4 4.3 3.9 3.5 3.3 4.0 2.8 2.0 1.8 1.7 1.6 1.8 1.7 1.8 2.5 2.1 4.2 5.1 6.4 6.9 6.7 5.8 5.3 6.0 6.1 8.2 8.7 9.0 8.8 8.4 8.7 8.7
4.3 3.9 3.3 3.5 3.6 3.6 3.3 3.6 4.0 4.3 4.7 4.3 3.8 3.0 3.2 2.7 2.5 2.0 1.5 1.3 1.6 1.8 2.9 2.1 2.9 2.6 3.0 2.4 4.8 6.1 6.2 6.2 5.7 5.7 7.5 9.3 9.0 9.0 8.5 8.2 9.0 9.2 8.1
4.3 4.3 4.0 4.2 4.2 3.5 3.7 3.5 3.9 4.4 4.0 3.5 2.9 2.7 2.2 2.3 1.8 1.9 2.2 2.1 2.7 2.7 3.1 3.0 3.1 3.2 3.2 2.7 2.7 3.3 3.3 4.7 5.4 6.7 7.7 8.5 8.9 9.0 8.1 8.3 7.5 6.7 6.7
4.1 4.1 4.3 4.2 4.2 3.7 3.6 3.7 4.0 3.9 3.9 3.4 2.7 2.2 2.1 1.7 2.0 2.1 3.2 3.4 3.4 4.0 4.5 4.5 4.0 4.3 4.2 4.5 6.3 6.8 7.1 7.5 8.1 8.6 7.8 7.2 7.2 6.5 6.8 6.1 6.8 6.6 6.2
3.9 4.0 4.2 4.3 4.2 4.1 3.9 3.8 4.0 3.9 3.4 2.9 2.6 2.2 2.6 2.2 2.8 3.0 3.3 4.6 5.5 6.2 6.4 6.7 7.3 7.0 7.7 8.1 8.2 8.4 8.8 9.1 9.0 8.1 7.4 6.6 6.4 6.8 6.6 6.6 7.4 6.5 7.3
Wind_Speed
8 8 8 8 8 7 8 9 8 7 4 2 1 1 2 2 1 4 5 6 4 4 2 2 3 3 2 2 3 2 4 3 4 3 4 3 3 3 3 4 4 5 7
7 7 8 6 6 7 8 8 7 7 4 2 2 2 2 1 1 2 3 5 5 4 4 2 2 3 2 4 3 3 3 2 3 2 1 4 4 4 4 3 3 4 5
11 8 8 7 6 6 7 7 7 7 4 4 2 2 2 2 2 2 2 4 6 5 4 3 2 3 1 2 2 2 1 2 2 3 1 3 2 3 3 4 2 3 2
4 5 6 6 6 6 5 6 6 6 4 5 3 3 3 2 2 2 1 1 4 5 4 3 3 3 2 3 2 2 1 1 3 3 1 2 2 1 4 3 4 5 3
9 9 8 7 5 6 6 5 5 4 3 3 3 3 2 1 1 1 3 3 4 4 5 4 2 2 2 3 3 4 3 1 2 2 2 1 2 4 4 6 4 3 4
8 8 6 7 5 4 5 4 5 3 3 2 2 3 3 2 1 2 2 3 2 3 5 3 2 4 4 3 4 3 3 4 3 3 3 3 3 2 2 3 5 6 5
9 8 8 7 6 5 4 3 4 3 2 2 2 2 3 2 2 1 1 2 2 2 3 3 4 3 4 5 4 3 4 4 3 4 4 3 4 3 3 3 8 5 3
6 7 7 7 6 6 5 4 5 4 3 4 4 3 4 2 2 2 2 2 2 1 3 4 5 6 7 6 6 2 3 4 4 6 5 4 4 4 4 4 3 10 8
7 8 7 7 7 7 7 6 5 4 4 4 4 4 4 5 4 5 4 3 2 1 3 4 3 5 6 6 5 3 5 4 4 5 5 4 4 4 4 4 4 4 10
7 6 7 7 6 6 5 5 6 7 6 6 6 5 6 5 5 4 4 3 2 2 3 3 3 4 5 5 5 4 5 5 4 4 6 4 3 5 4 4 4 4 7
8 8 7 7 7 6 6 5 4 5 5 5 4 5 3 3 4 3 2 2 3 3 4 4 4 4 5 5 5 5 5 6 6 5 6 7 6 5 4 4 4 4 4
8 8 8 8 7 7 6 6 5 5 5 4 5 5 4 3 4 3 3 2 3 3 3 4 5 5 6 6 6 6 6 6 6 6 6 7 7 8 6 4 6 4 5
6 6 6 7 7 7 6 6 6 5 5 5 5 5 4 5 4 4 3 2 2 3 4 4 5 5 5 6 6 6 6 6 6 6 6 8 8 9 7 6 6 4 5
6 5 6 8 8 7 7 7 7 7 6 5 5 5 4 4 3 2 2 3 2 3 4 5 6 6 6 6 6 6 6 6 6 6 6 8 9 10 8 7 6 5 4
6 4 7 7 8 7 7 7 6 6 5 5 3 4 3 3 3 2 2 3 3 4 5 5 5 6 5 5 5 5 6 6 6 6 7 8 10 18 16 9 9 9 8
6 7 6 8 8 9 8 7 7 7 6 6 5 4 3 3 1 2 3 4 5 5 5 6 6 6 5 11 14 11 5 6 6 7 9 9 13 12 17 18 20 17 11
6 7 7 7 7 8 9 8 8 6 6 6 5 5 4 3 3 3 4 5 6 5 6 6 6 7 6 14 16 17 6 5 6 7 8 9 8 14 10 15 20 18 21
6 7 7 7 8 4 5 6 7 7 6 6 4 4 3 3 3 4 5 6 4 6 6 6 6 6 7 16 17 17 7 6 7 7 8 9 10 10 13 11 11 10 11
4 5 6 7 4 4 6 8 7 7 6 5 4 4 3 4 5 6 6 5 5 6 5 5 7 7 8 17 18 15 6 6 7 7 7 9 10 14 21 14 12 12 11
2 6 7 3 6 5 7 8 6 6 5 5 5 4 5 6 6 6 6 4 4 5 5 7 6 10 9 15 18 15 5 6 5 7 9 17 14 20 22 15 13 13 14
4 4 5 4 4 5 6 6 5 5 4 4 4 5 6 6 6 6 4 5 6 6 6 6 7 7 9 9 17 18 8 5 6 7 8 6 16 20 24 24 14 15 17
3 4 4 4 3 3 5 5 4 4 4 3 5 6 6 5 4 6 6 6 6 6 7 6 6 6 7 13 14 16 18 17 7 9 7 7 20 24 26 22 24 28 23
2 3 5 4 1 2 3 3 3 3 3 4 7 7 6 6 6 6 7 5 5 5 7 5 6 7 6 5 14 18 18 17 10 8 14 25 25 26 19 20 24 26 10
3 3 4 2 1 2 2 3 4 4 5 6 7 6 6 7 6 4 4 5 6 6 6 6 6 6 6 6 4 6 7 13 11 13 12 15 20 24 17 16 11 9 9
2 3 3 2 3 3 4 5 6 4 5 6 6 6 5 6 6 6 6 6 7 7 7 7 5 6 8 9 14 13 9 9 12 17 11 9 8 7 8 6 9 8 7
2 2 0 2 4 5 6 6 5 5 6 6 5 5 5 5 5 6 8 14 17 20 19 20 15 10 17 22 22 21 22 23 23 11 9 9 7 10 9 8 9 7 12
Wind_Direction
191 164 160 158 149 149 150 162 152 167 142 133 174 229 235 266 270 252 224 197 210 218 193 284 318 340 326 321 333 327 344 325 344 346 327 333 331 255 249 241 230 212 207
165 157 146 134 142 153 159 162 162 164 166 155 177 150 156 193 207 234 220 219 213 214 219 226 278 304 332 340 351 3 340 311 8 1 321 347 339 352 299 270 243 231 210
168 168 158 155 151 162 165 164 170 166 167 161 114 67 37 16 354 310 275 262 235 226 224 244 268 308 327 309 309 307 315 299 318 19 179 345 315 325 331 350 300 317 278
156 140 144 157 172 182 177 154 150 149 154 151 141 165 181 203 234 239 243 251 200 230 227 234 259 290 299 302 287 294 226 166 289 327 66 227 192 305 324 331 322 332 288
157 154 162 168 179 150 150 136 131 130 123 149 163 182 203 221 296 339 350 327 306 276 240 232 241 277 285 276 278 291 287 241 227 207 303 322 283 234 228 285 295 317 302
124 134 155 141 128 121 109 110 121 123 131 158 188 180 201 264 2 341 348 333 344 9 23 28 355 318 302 290 282 275 262 260 253 251 239 219 235 258 253 278 285 275 288
136 145 144 134 128 131 138 138 140 173 176 160 147 148 164 160 153 125 88 48 36 39 23 36 17 349 334 326 313 292 285 278 258 257 256 243 236 231 238 253 282 284 292
139 145 149 151 161 162 169 185 173 171 143 138 155 136 115 123 123 107 98 81 98 88 37 28 20 4 358 351 348 326 305 286 282 281 267 261 256 240 224 239 254 292 285
166 171 171 169 170 176 190 190 175 166 163 172 146 125 120 115 124 117 117 118 93 93 43 30 11 351 344 340 342 334 319 325 303 297 285 277 268 260 253 240 222 238 289
171 175 170 172 182 183 184 174 175 182 181 159 158 156 155 149 143 128 120 114 83 57 40 12 2 349 348 349 354 339 321 328 319 308 319 306 289 287 274 257 250 229 252
186 183 180 177 178 172 180 191 187 180 182 172 151 135 122 107 99 100 90 61 45 28 16 357 352 350 346 344 345 336 323 332 320 321 320 306 298 288 288 283 270 259 242
196 188 184 176 175 187 194 203 210 195 192 165 140 149 151 128 124 118 99 75 44 16 4 357 352 343 336 331 328 320 313 312 315 314 312 302 310 298 283 274 270 257 263
195 192 178 188 190 195 200 207 206 202 186 158 161 167 167 150 150 145 126 91 54 6 345 341 325 315 312 311 303 295 300 300 303 302 301 301 301 298 297 278 275 265 278
220 214 200 203 202 201 197 197 197 188 186 180 179 176 170 155 133 110 70 31 352 326 316 305 300 300 300 292 291 291 293 290 286 282 282 293 298 297 301 300 279 280 275
358 229 224 226 218 211 206 198 191 182 178 175 176 179 154 124 110 70 358 313 307 298 292 290 287 289 295 291 293 279 277 280 281 278 277 284 286 296 300 304 305 306 302
348 341 297 242 229 218 205 191 182 179 161 163 179 174 142 140 174 246 269 290 289 286 284 283 286 294 292 294 302 310 285 280 275 285 290 286 291 288 299 302 300 290 290
328 330 318 300 261 223 194 182 173 154 150 153 165 168 174 201 230 263 279 280 281 281 279 280 279 278 278 295 304 308 292 268 271 274 280 286 290 292 272 275 286 287 284
314 315 307 306 299 232 171 130 136 140 146 147 162 185 202 235 266 279 279 275 272 271 274 278 272 275 282 292 301 303 290 275 264 262 269 271 279 277 292 281 274 269 271
297 286 294 290 306 124 122 117 117 129 138 156 186 205 220 258 271 268 267 267 266 272 262 263 276 273 279 293 302 303 284 262 259 255 254 266 269 279 296 293 288 284 273
316 329 330 16 93 97 110 112 130 139 159 187 199 198 225 246 255 253 262 260 252 269 272 274 261 269 277 285 296 300 280 271 265 260 258 265 280 289 298 297 294 290 287
15 23 35 76 120 134 120 120 138 163 201 177 204 242 251 256 254 263 256 260 269 273 269 264 269 265 267 275 290 297 297 271 282 281 284 274 291 296 296 294 293 287 288
51 51 83 95 100 114 109 128 156 190 187 220 253 268 271 265 266 266 279 273 268 268 271 269 277 272 266 278 285 296 301 300 295 290 290 286 292 293 296 299 297 300 300
126 87 129 127 96 95 118 153 240 222 250 287 283 274 279 281 275 271 272 273 261 259 276 262 273 278 280 268 284 296 299 297 291 285 283 297 299 295 298 296 297 301 290
119 96 119 124 241 247 199 219 261 264 279 272 269 280 284 291 275 266 261 263 271 273 273 273 270 274 272 275 271 275 280 281 286 287 289 294 294 297 288 295 296 288 282
78 90 124 182 240 252 264 262 274 282 269 269 276 279 268 269 278 264 267 269 266 257 275 274 254 270 279 277 279 284 289 291 291 304 300 294 293 289 289 279 293 277 276
112 102 159 255 272 279 282 291 294 276 267 274 276 271 280 274 275 281 291 282 279 285 282 279 277 280 280 287 290 291 292 294 299 299 293 287 293 291 285 282 295 280 293